DW2485 Weather Reports


time (UTC)temp
F
wind
direction
speed
knots
gust
knots
rain 1hr
in
rain 24hr
in
rain mn
in
humidity
%
barometer
mb
20260509223505 71 306 15.6 22.6 0.00 0.00 0.00 100 1009.4
20260509223005 72 317 14.8 20.0 0.00 0.00 0.00 100 1009.4
20260509221506 72 313 15.6 20.0 0.00 0.00 0.00 100 1009.0
20260509220005 73 286 10.4 17.4 0.00 0.00 0.00 100 1008.8
20260509215005 73 315 15.6 21.7 0.00 0.00 0.00 100 1008.8
20260509214505 72 286 9.6 21.7 0.00 0.00 0.00 100 1008.9
20260509214006 72 286 19.1 26.9 0.00 0.00 0.00 100 1008.8
20260509213505 72 301 18.2 22.6 0.00 0.00 0.00 100 1008.9
20260509213006 72 271 14.8 18.2 0.00 0.00 0.00 100 1008.8
20260509212005 72 279 13.9 17.4 0.00 0.00 0.00 100 1008.8
20260509204505 70 275 13.0 19.1 0.00 0.00 0.00 100 1008.7
20260509204005 71 257 12.2 18.2 0.00 0.00 0.00 100 1008.8
20260509203505 72 258 14.8 24.3 0.00 0.00 0.00 100 1008.9
20260509203005 72 264 13.0 19.1 0.00 0.00 0.00 100 1008.8
20260509202505 73 257 13.9 19.1 0.00 0.00 0.00 100 1008.8
20260509201505 71 272 13.9 20.0 0.00 0.00 0.00 100 1009.0
20260509195004 67 265 8.7 14.8 0.00 0.00 0.00 100 1008.8
20260509194505 67 270 12.2 14.8 0.00 0.00 0.00 100 1008.8
20260509193005 69 261 12.2 17.4 0.00 0.00 0.00 100 1008.7
20260509192004 69 274 11.3 20.0 0.00 0.00 0.00 100 1008.7
20260509191005 71 277 13.0 21.7 0.00 0.00 0.00 100 1008.6
20260509190006 71 282 18.2 25.2 0.00 0.00 0.00 100 1008.4
20260509185005 71 305 17.4 22.6 0.00 0.00 0.00 100 1008.1
20260509184505 70 277 20.9 26.9 0.00 0.00 0.00 100 1008.1
20260509182505 70 299 13.9 25.2 0.00 0.00 0.00 100 1008.1
20260509182005 71 292 13.9 22.6 0.00 0.00 0.00 100 1008.0
20260509181505 71 293 14.8 20.0 0.00 0.00 0.00 100 1007.8
20260509181005 72 282 14.8 24.3 0.00 0.00 0.00 100 1007.7
20260509180005 72 298 13.9 18.2 0.00 0.00 0.00 100 1007.7
20260509175505 71 295 13.9 19.1 0.00 0.00 0.00 100 1007.7
20260509175004 70 283 13.0 18.2 0.00 0.00 0.00 100 1007.6
20260509174504 70 300 14.8 20.0 0.00 0.00 0.00 100 1007.8
20260509174004 70 270 11.3 17.4 0.00 0.00 0.00 100 1007.6
20260509173505 71 276 13.0 17.4 0.00 0.00 0.00 100 1007.6
20260509171504 72 270 15.6 25.2 0.00 0.00 0.00 100 1007.8
20260509171004 72 292 14.8 24.3 0.00 0.00 0.00 100 1007.8
20260509170504 73 287 14.8 24.3 0.00 0.00 0.00 100 1007.8
20260509170004 73 282 12.2 24.3 0.00 0.00 0.00 100 1007.8
20260509165504 74 271 18.2 26.9 0.00 0.00 0.00 100 1007.8
20260509165005 74 274 18.2 27.8 0.00 0.00 0.00 100 1007.8
20260509164505 74 291 17.4 21.7 0.00 0.00 0.00 100 1007.7
20260509164004 73 284 15.6 24.3 0.00 0.00 0.00 100 1007.8
20260509163504 73 250 13.9 19.1 0.00 0.00 0.00 100 1007.8
20260509163005 72 250 13.9 20.0 0.00 0.00 0.00 100 1007.8
20260509162005 72 275 14.8 20.9 0.00 0.00 0.00 100 1007.8
20260509161504 72 268 13.0 17.4 0.00 0.00 0.00 100 1007.8
20260509160505 71 279 13.9 20.9 0.00 0.00 0.00 100 1007.9
20260509160005 71 289 13.9 20.0 0.00 0.00 0.00 100 1008.0
20260509155504 72 286 19.1 24.3 0.00 0.00 0.00 100 1007.9
20260509154505 72 276 17.4 22.6 0.00 0.00 0.00 100 1008.0
20260509154005 71 289 16.5 30.4 0.00 0.00 0.00 100 1008.0
20260509153504 71 283 17.4 25.2 0.00 0.00 0.00 100 1008.0
20260509152005 71 272 17.4 24.3 0.00 0.00 0.00 100 1007.7
20260509151505 71 264 12.2 20.0 0.00 0.00 0.00 100 1007.6
20260509150505 70 255 9.6 15.6 0.00 0.00 0.00 100 1007.5
20260509145505 70 277 11.3 15.6 0.00 0.00 0.00 100 1007.3
20260509144005 68 265 9.6 13.9 0.00 0.00 0.00 100 1007.5
20260509143005 67 239 4.3 10.4 0.00 0.00 0.00 100 1007.5
20260509142004 66 273 6.1 8.7 0.00 0.00 0.00 100 1007.6
20260509141505 66 272 6.1 10.4 0.00 0.00 0.00 100 1007.6
20260509141004 65 256 4.3 7.0 0.00 0.00 0.00 100 1007.4
20260509134504 61 260 2.6 6.1 0.00 0.00 0.00 100 1007.7
20260509134004 60 248 1.7 4.3 0.00 0.00 0.00 100 1007.5
20260509132005 57 238 4.3 7.0 0.00 0.00 0.00 100 1007.2
20260509131004 56 217 2.6 4.3 0.00 0.00 0.00 100 1007.2
20260509130505 55 235 2.6 4.3 0.00 0.00 0.00 100 1007.1
20260509125004 53 211 4.3 4.3 0.00 0.00 0.00 100 1007.0
20260509124505 53 207 2.6 2.6 0.00 0.00 0.00 100 1007.0
20260509124005 52 188 2.6 4.3 0.00 0.00 0.00 100 1007.0
20260509122504 50 202 0.9 1.7 0.00 0.00 0.00 100 1007.0
20260509121004 49 211 0.9 0.9 0.00 0.00 0.00 100 1006.8
20260509120504 48 211 0.0 1.7 0.00 0.00 0.00 100 1006.8
20260509115504 48 211 0.0 1.7 0.00 0.00 0.00 100 1006.7
20260509115005 48 211 0.0 1.7 0.00 0.00 0.00 100 1006.7
20260509113504 47 198 0.9 1.7 0.00 0.00 0.00 100 1006.7
20260509112505 47 198 0.9 0.9 0.00 0.00 0.00 100 1006.5
20260509111504 47 198 0.9 1.7 0.00 0.00 0.00 100 1006.5
20260509110504 47 198 2.6 2.6 0.00 0.00 0.00 100 1006.3
20260509105004 48 232 1.7 1.7 0.00 0.00 0.00 100 1006.4
20260509104004 49 232 1.7 1.7 0.00 0.00 0.00 100 1006.3
20260509103503 49 242 1.7 1.7 0.00 0.00 0.00 100 1006.4
20260509103004 49 242 0.9 1.7 0.00 0.00 0.00 100 1006.4
20260509102504 49 242 0.9 1.7 0.00 0.00 0.00 100 1006.4
20260509102004 49 242 1.7 1.7 0.00 0.00 0.00 100 1006.4
20260509095504 50 232 1.7 2.6 0.00 0.00 0.00 100 1006.3
20260509094004 50 244 2.6 2.6 0.00 0.00 0.00 100 1006.3
20260509092504 50 236 2.6 4.3 0.00 0.00 0.00 100 1006.2
20260509091504 50 244 2.6 2.6 0.00 0.00 0.00 100 1006.6
20260509091004 50 236 2.6 2.6 0.00 0.00 0.00 100 1006.5
20260509090004 50 225 1.7 2.6 0.00 0.00 0.00 100 1006.5
20260509085504 51 244 1.7 2.6 0.00 0.00 0.00 100 1006.5
20260509084004 51 271 1.7 1.7 0.00 0.00 0.00 100 1006.2
20260509083504 51 270 0.9 2.6 0.00 0.00 0.00 100 1006.0
20260509082004 51 210 2.6 4.3 0.00 0.00 0.00 100 1006.0
20260509080004 51 199 2.6 2.6 0.00 0.00 0.00 100 1006.2
20260509075504 52 196 2.6 2.6 0.00 0.00 0.00 100 1006.3
20260509073004 52 195 0.9 1.7 0.00 0.00 0.00 100 1006.4
20260509065504 53 138 0.9 1.7 0.00 0.00 0.00 100 1006.7
20260509065004 54 197 0.0 2.6 0.00 0.00 0.00 100 1006.6
20260509064504 54 190 0.9 1.7 0.00 0.00 0.00 100 1006.7
20260509064004 54 215 0.0 2.6 0.00 0.00 0.00 100 1006.7
20260509063004 54 208 1.7 2.6 0.00 0.00 0.00 100 1006.8
20260509062503 54 203 2.6 5.2 0.00 0.00 0.00 100 1006.8
20260509060004 55 193 4.3 6.1 0.00 0.00 0.00 100 1006.7
20260509055004 55 211 2.6 7.0 0.00 0.00 0.00 100 1006.7
20260509054504 55 207 2.6 6.1 0.00 0.00 0.00 100 1006.7
20260509053503 55 199 4.3 7.8 0.00 0.00 0.00 100 1006.7
20260509053004 55 204 5.2 7.8 0.00 0.00 0.00 100 1006.7
20260509052004 56 196 5.2 10.4 0.00 0.00 0.00 100 1006.8
20260509051504 56 194 6.1 8.7 0.00 0.00 0.00 100 1006.7
20260509051003 56 187 5.2 7.8 0.00 0.00 0.00 100 1006.9
20260509050003 57 181 5.2 10.4 0.00 0.00 0.00 100 1007.0
20260509045004 57 179 5.2 10.4 0.00 0.00 0.00 100 1007.1
20260509042504 59 194 6.1 12.2 0.00 0.00 0.00 100 1007.3
20260509042004 59 194 7.0 10.4 0.00 0.00 0.00 100 1007.4
20260509041503 59 207 6.1 10.4 0.00 0.00 0.00 100 1007.5
20260509040506 59 197 7.8 10.4 0.00 0.00 0.00 100 1007.5
20260509035505 60 206 4.3 10.4 0.00 0.00 0.00 100 1007.7
20260509035006 60 209 5.2 10.4 0.00 0.00 0.00 100 1007.8
20260509034505 60 210 6.1 10.4 0.00 0.00 0.00 100 1007.8
20260509034005 60 215 5.2 10.4 0.00 0.00 0.00 100 1007.7
20260509031006 61 201 7.8 12.2 0.00 0.00 0.00 100 1007.2
20260509030006 61 198 9.6 15.6 0.00 0.00 0.00 100 1007.1
20260509025005 61 190 10.4 17.4 0.00 0.00 0.00 100 1006.8
20260509023506 62 193 8.7 13.9 0.00 0.00 0.00 100 1006.6
20260509023005 62 186 8.7 13.0 0.00 0.00 0.00 100 1006.5
20260509022505 62 188 6.1 11.3 0.00 0.00 0.00 100 1006.3
20260509021012 63 201 6.1 10.4 0.00 0.00 0.00 100 1006.4
20260509015506 64 189 6.1 8.7 0.00 0.00 0.00 100 1006.2
20260509015006 64 193 6.1 10.4 0.00 0.00 0.00 100 1006.2
20260509014506 64 196 7.0 10.4 0.00 0.00 0.00 100 1006.1
20260509013505 65 194 7.0 11.3 0.00 0.00 0.00 100 1006.2
20260509012005 66 199 6.1 11.3 0.00 0.00 0.00 100 1006.0
20260509011506 66 193 7.0 11.3 0.00 0.00 0.00 100 1006.1
20260509010505 67 200 6.1 10.4 0.00 0.00 0.00 100 1006.1
20260509010005 67 188 6.1 10.4 0.00 0.00 0.00 100 1006.0
20260509005505 68 196 6.1 11.3 0.00 0.00 0.00 100 1006.2
20260509004506 69 192 6.1 12.2 0.00 0.00 0.00 100 1006.2
20260509004006 70 193 8.7 11.3 0.00 0.00 0.00 100 1006.2
20260509003006 71 218 4.3 7.8 0.00 0.00 0.00 100 1006.2
20260509002505 71 212 5.2 8.7 0.00 0.00 0.00 100 1006.4
20260509002006 71 224 5.2 10.4 0.00 0.00 0.00 100 1006.4
20260509001505 72 210 6.1 10.4 0.00 0.00 0.00 100 1006.4
20260508235505 72 235 5.2 11.3 0.00 0.00 0.00 100 1006.4
20260508235005 73 227 7.0 13.9 0.00 0.00 0.00 100 1006.3
20260508234506 73 237 7.8 12.2 0.00 0.00 0.00 100 1006.3
20260508231005 73 193 7.0 13.0 0.00 0.00 0.00 100 1006.6
20260508230005 73 259 9.6 13.9 0.00 0.00 0.00 100 1006.7